Flag for U.S.A. Weather past 2 weeks in Norwalk, California, U.S.A.

Now
86 °F

Sunny.


Feels Like: 87 °F
Forecast: 71 / 89 °F
Wind: 7 mph from South

Location: Fullerton Municipal Airport

Current Time: Aug 30, 2015 at 1:59:44 PM

Latest Report: Aug 30, 2015 at 12:53 PM


Visibility: 10 mi

Pressure: 29.88 "Hg

Humidity: 48%

Dew point: 64 °F

Location of NorwalkLocation

Historic Weather in Norwalk — Graph

°F

Norwalk temperature yesterday

Maximum temperature yesterday: 93 °F (at 12:53 PM)
Minimum temperature yesterday: 72 °F (at 5:53 AM)
Average temperature yesterday: 83 °F

Past Weeks' High & Low Weather Summary

 TemperatureHumidityPressure
High101 °F (Aug 15, 3:53 PM)88% (Aug 30, 5:02 AM)29.97 "Hg (Aug 30, 5:02 AM)
Low67 °F (Aug 23, 4:53 AM)16% (Aug 15, 3:53 PM)29.77 "Hg (Aug 16, 5:53 PM)
Average78 °F63%29.88 "Hg
* Reported Aug 15 11:53 AM — Aug 30 11:53 AM, Norwalk, Weather by CustomWeather, © 2015

Note: Actual official high and low records may vary slightly from our data, if they occured in-between our weather recording intervals... More about our weather records

Advertising

Norwalk weather history for previous 24 hours

 ConditionsComfort  
Time TempWeatherWind HumidityBarometerVisibility
11:53 AM
Sun, Aug 30
84 °FSunny.8 mph55%29.89 "Hg10 mi
10:53 AM83 °FSunny.6 mph57%29.90 "Hg10 mi
9:53 AM80 °FSunny.6 mph67%29.89 "Hg10 mi
8:53 AM77 °FScattered clouds.5 mph71%29.89 "Hg10 mi
7:53 AM74 °FScattered clouds.5 mph85%29.89 "Hg10 mi
6:53 AM73 °FMostly cloudy.No wind88%29.87 "Hg8 mi
5:53 AM73 °FOvercast.3 mph88%29.86 "Hg9 mi
5:02 AM73 °FPassing clouds.3 mph88%29.85 "Hg10 mi
4:53 AM74 °FPassing clouds.No wind85%29.85 "Hg10 mi
3:53 AM75 °FClear.No wind74%29.85 "Hg10 mi
2:53 AM75 °FClear.No wind71%29.85 "Hg10 mi
1:53 AM76 °FClear.No wind72%29.84 "Hg10 mi
12:53 AM77 °FClear.No wind69%29.85 "Hg10 mi
11:53 PM
Sat, Aug 29
78 °FClear.3 mph66%29.84 "Hg10 mi
10:53 PM79 °FClear.No wind60%29.84 "Hg10 mi
9:53 PM80 °FClear.5 mph58%29.84 "Hg10 mi
8:53 PM82 °FClear.3 mph49%29.83 "Hg10 mi
7:53 PM83 °FSunny.5 mph48%29.81 "Hg10 mi
6:53 PM87 °FSunny.6 mph39%29.81 "Hg10 mi
5:53 PM91 °FSunny.7 mph34%29.80 "Hg10 mi
4:53 PM93 °FSunny.5 mph41%29.80 "Hg10 mi
3:53 PM91 °FSunny.7 mph39%29.82 "Hg10 mi
2:53 PM92 °FSunny.8 mph37%29.83 "Hg10 mi
1:53 PM93 °FSunny.3 mph33%29.85 "Hg10 mi
Weather by CustomWeather, © 2015

See weather overviewHow to use our weather pages